When you browse on this site, cookies collect data to enhance your experience and personalize the content and advertising you see.
Visit our Privacy Policy to learn more. By continuing to use the site, you agree to this use of cookies and data.

Tiempo cada hora Maun

Hoy, 22 Septiembre, Martes

Tiempo Temperatura Precipitaciones Viento Presión Humedad
00:00 +27°C° 0 mm 3 mps 680 mmHg 20%
01:00 +26°C° 0 mm 3 mps 680 mmHg 22%
02:00 +25°C° 0 mm 2 mps 680 mmHg 24%
03:00 +24°C° 0 mm 2 mps 680 mmHg 25%
04:00 +24°C° 0 mm 2 mps 680 mmHg 26%
05:00 +23°C° 0 mm 2 mps 680 mmHg 27%
06:00 +25°C° 0 mm 4 mps 682 mmHg 23%
07:00 +27°C° 0 mm 5 mps 683 mmHg 19%
08:00 +29°C° 0 mm 7 mps 684 mmHg 15%
09:00 +32°C° 0 mm 6 mps 684 mmHg 14%
10:00 +34°C° 0 mm 6 mps 685 mmHg 12%
11:00 +38°C° 0 mm 6 mps 685 mmHg 11%
12:00 +39°C° 0 mm 5 mps 685 mmHg 10%
13:00 +40°C° 0 mm 5 mps 684 mmHg 10%
14:00 +41°C° 0 mm 4 mps 683 mmHg 9%
15:00 +41°C° 0 mm 4 mps 683 mmHg 9%
16:00 +41°C° 0 mm 4 mps 682 mmHg 10%
17:00 +40°C° 0 mm 4 mps 682 mmHg 11%
18:00 +37°C° 0 mm 4 mps 682 mmHg 13%
19:00 +34°C° 0 mm 3 mps 682 mmHg 15%
20:00 +30°C° 0 mm 3 mps 682 mmHg 18%
21:00 +29°C° 0 mm 4 mps 683 mmHg 22%
22:00 +28°C° 0 mm 5 mps 683 mmHg 26%
23:00 +27°C° 0 mm 6 mps 684 mmHg 30%

Mañana, 23 Septiembre, Miércoles

Tiempo Temperatura Precipitaciones Viento Presión Humedad
00:00 +27°C° 0 mm 6 mps 684 mmHg 33%
01:00 +26°C° 0 mm 6 mps 684 mmHg 36%
02:00 +24°C° 0 mm 6 mps 683 mmHg 40%
03:00 +23°C° 0 mm 6 mps 683 mmHg 45%
04:00 +21°C° 0 mm 6 mps 683 mmHg 51%
05:00 +20°C° 0 mm 6 mps 683 mmHg 57%
06:00 +21°C° 0 mm 6 mps 683 mmHg 55%
07:00 +21°C° 0 mm 5 mps 684 mmHg 53%
08:00 +22°C° 0 mm 5 mps 685 mmHg 51%
09:00 +26°C° 0 mm 5 mps 685 mmHg 43%
10:00 +29°C° 0 mm 5 mps 685 mmHg 35%
11:00 +33°C° 0 mm 4 mps 686 mmHg 27%
12:00 +35°C° 0 mm 4 mps 685 mmHg 22%
13:00 +37°C° 0 mm 4 mps 684 mmHg 18%
14:00 +40°C° 0 mm 5 mps 683 mmHg 13%
15:00 +40°C° 0 mm 4 mps 683 mmHg 13%
16:00 +38°C° 0 mm 4 mps 682 mmHg 12%
17:00 +38°C° 0 mm 4 mps 682 mmHg 12%
18:00 +35°C° 0 mm 3 mps 682 mmHg 15%
19:00 +31°C° 0 mm 3 mps 682 mmHg 18%
20:00 +28°C° 0 mm 2 mps 682 mmHg 20%
21:00 +27°C° 0 mm 3 mps 682 mmHg 22%
22:00 +26°C° 0 mm 3 mps 682 mmHg 23%
23:00 +25°C° 0 mm 3 mps 683 mmHg 24%

Pasado mañana, 24 Septiembre, Jueves

Tiempo Temperatura Precipitaciones Viento Presión Humedad
00:00 +25°C° 0 mm 3 mps 682 mmHg 26%
01:00 +24°C° 0 mm 3 mps 682 mmHg 29%
02:00 +22°C° 0 mm 3 mps 681 mmHg 31%
03:00 +22°C° 0 mm 3 mps 681 mmHg 35%
04:00 +21°C° 0 mm 3 mps 681 mmHg 38%
05:00 +20°C° 0 mm 3 mps 681 mmHg 41%
06:00 +21°C° 0 mm 3 mps 682 mmHg 39%
07:00 +22°C° 0 mm 4 mps 683 mmHg 36%
08:00 +23°C° 0 mm 4 mps 683 mmHg 33%
09:00 +28°C° 0 mm 4 mps 684 mmHg 27%
10:00 +32°C° 0 mm 4 mps 684 mmHg 21%
11:00 +36°C° 0 mm 4 mps 684 mmHg 14%
12:00 +37°C° 0 mm 3 mps 684 mmHg 13%
13:00 +39°C° 0 mm 3 mps 683 mmHg 11%
14:00 +40°C° 0 mm 3 mps 682 mmHg 10%
15:00 +39°C° 0 mm 3 mps 681 mmHg 10%
16:00 +39°C° 0 mm 3 mps 681 mmHg 10%
17:00 +39°C° 0 mm 3 mps 680 mmHg 10%
18:00 +36°C° 0 mm 2 mps 680 mmHg 12%
19:00 +32°C° 0 mm 2 mps 680 mmHg 15%
20:00 +29°C° 0 mm 2 mps 680 mmHg 17%
21:00 +28°C° 0 mm 2 mps 680 mmHg 18%
22:00 +27°C° 0 mm 2 mps 680 mmHg 20%
23:00 +26°C° 0 mm 3 mps 680 mmHg 21%

25 Septiembre, Viernes

Tiempo Temperatura Precipitaciones Viento Presión Humedad
00:00 +25°C° 0 mm 2 mps 680 mmHg 22%
01:00 +25°C° 0 mm 2 mps 680 mmHg 23%
02:00 +24°C° 0 mm 2 mps 679 mmHg 24%
03:00 +23°C° 0 mm 2 mps 679 mmHg 25%
04:00 +21°C° 0 mm 2 mps 679 mmHg 27%
05:00 +21°C° 0 mm 2 mps 679 mmHg 28%
06:00 +24°C° 0 mm 3 mps 680 mmHg 26%
07:00 +25°C° 0 mm 3 mps 681 mmHg 24%
08:00 +27°C° 0 mm 4 mps 682 mmHg 21%
09:00 +32°C° 0 mm 4 mps 682 mmHg 18%
10:00 +35°C° 0 mm 3 mps 682 mmHg 15%
11:00 +38°C° 0 mm 3 mps 683 mmHg 11%
12:00 +40°C° 0 mm 3 mps 682 mmHg 10%
13:00 +42°C° 0 mm 2 mps 681 mmHg 9%
14:00 +43°C° 0 mm 1 mps 681 mmHg 8%
15:00 +42°C° 0 mm 1 mps 680 mmHg 9%
16:00 +41°C° 0 mm 1 mps 679 mmHg 9%
17:00 +40°C° 0 mm 1 mps 678 mmHg 9%
18:00 +36°C° 0 mm 1 mps 678 mmHg 11%
19:00 +33°C° 0 mm 1 mps 678 mmHg 13%
20:00 +30°C° 0 mm 1 mps 678 mmHg 16%
21:00 +29°C° 0 mm 1 mps 678 mmHg 17%
22:00 +27°C° 0 mm 1 mps 678 mmHg 19%
23:00 +26°C° 0 mm 1 mps 677 mmHg 21%

26 Septiembre, Sábado

Tiempo Temperatura Precipitaciones Viento Presión Humedad
00:00 +26°C° 0 mm 1 mps 677 mmHg 21%
01:00 +25°C° 0 mm 1 mps 677 mmHg 22%
02:00 +25°C° 0 mm 1 mps 676 mmHg 23%
03:00 +24°C° 0 mm 2 mps 676 mmHg 23%
04:00 +24°C° 0 mm 2 mps 676 mmHg 24%
05:00 +23°C° 0 mm 2 mps 676 mmHg 25%
06:00 +25°C° 0 mm 2 mps 677 mmHg 23%
07:00 +26°C° 0 mm 2 mps 678 mmHg 21%
08:00 +28°C° 0 mm 2 mps 679 mmHg 19%
09:00 +31°C° 0 mm 2 mps 679 mmHg 16%
10:00 +36°C° 0 mm 2 mps 680 mmHg 13%
11:00 +39°C° 0 mm 2 mps 680 mmHg 10%
12:00 +40°C° 0 mm 2 mps 680 mmHg 9%
13:00 +41°C° 0 mm 2 mps 679 mmHg 8%
14:00 +42°C° 0 mm 2 mps 678 mmHg 8%
15:00 +43°C° 0 mm 3 mps 678 mmHg 8%
16:00 +42°C° 0 mm 3 mps 677 mmHg 8%
17:00 +42°C° 0 mm 3 mps 677 mmHg 8%
18:00 +38°C° 0 mm 3 mps 677 mmHg 10%
19:00 +34°C° 0 mm 3 mps 677 mmHg 11%
20:00 +30°C° 0 mm 3 mps 677 mmHg 13%
21:00 +29°C° 0 mm 3 mps 677 mmHg 14%
22:00 +28°C° 0 mm 3 mps 677 mmHg 14%
23:00 +27°C° 0 mm 3 mps 677 mmHg 15%

27 Septiembre, Domingo

Tiempo Temperatura Precipitaciones Viento Presión Humedad
00:00 +26°C° 0 mm 3 mps 677 mmHg 14%
01:00 +26°C° 0 mm 4 mps 677 mmHg 12%
02:00 +25°C° 0 mm 4 mps 677 mmHg 11%
03:00 +23°C° 0 mm 4 mps 677 mmHg 12%
04:00 +22°C° 0 mm 3 mps 677 mmHg 12%
05:00 +20°C° 0 mm 3 mps 677 mmHg 12%
06:00 +22°C° 0 mm 4 mps 678 mmHg 11%
07:00 +23°C° 0 mm 4 mps 679 mmHg 11%
08:00 +25°C° 0 mm 5 mps 679 mmHg 10%
09:00 +28°C° 0 mm 5 mps 680 mmHg 9%
10:00 +33°C° 0 mm 4 mps 680 mmHg 7%
11:00 +36°C° 0 mm 4 mps 680 mmHg 6%
12:00 +37°C° 0 mm 4 mps 680 mmHg 6%
13:00 +39°C° 0 mm 3 mps 679 mmHg 5%
14:00 +40°C° 0 mm 3 mps 679 mmHg 5%
15:00 +40°C° 0 mm 3 mps 678 mmHg 5%
16:00 +40°C° 0 mm 3 mps 678 mmHg 6%
17:00 +39°C° 0 mm 3 mps 677 mmHg 6%
18:00 +36°C° 0 mm 3 mps 678 mmHg 7%
19:00 +33°C° 0 mm 3 mps 678 mmHg 8%
20:00 +29°C° 0 mm 3 mps 678 mmHg 10%
21:00 +28°C° 0 mm 3 mps 678 mmHg 10%
22:00 +27°C° 0 mm 3 mps 678 mmHg 11%
23:00 +26°C° 0 mm 3 mps 678 mmHg 11%
Mostrar más